Gander International Airport

Jump to: basic info | weather | frequencies | runways | comments

Related pages: nearby airports | nearby navaids | notams | map

Basic information (top)

Codes: YQX CYQX
Location: lon 48.936901, lat -54.568100, elev 496 ft / 151 m msl
Status: medium_airport
Scheduled airline service: yes
Links: Wikipedia Mobile

Weather (top)

Current conditions (rec'd 2015/03/30 12:00Z):

CYQX 301200Z 20006KT 20SM FEW250 M05/M08 A3002 RMK CI1 SLP177

Airport forecast (rec'd 2015/03/30 12:38Z):

TAF CYQX 301138Z 3012/3112 20010KT P6SM FEW200 
     FM302000 19008KT P6SM SCT030 
      BECMG 3102/3104 14006KT 
      BECMG 3106/3108 10006KT 
      RMK NXT FCST BY 301800Z

Frequencies (top)

Verify before use: may be inaccurate or out of date.

A/D: 128.5 MHz (APP/DEP)
ATIS: 124.8 MHz (ATIS)
GND: 121.9 MHz (GND)
OPS: 128.85 MHz (OUTCAST OPS)
RCO: 126.7 MHz (HALIFAX RDO)
TWR: 118.1 MHz (TWR)

Runways (top)

03/21: 10,200 x 200 ft (3,109 x 61 m) — paved — lighted

09/27 [CLOSED]: 1,875 x 50 ft (572 x 15 m) — paved — not lighted

13/31: 8,900 x 200 ft (2,713 x 61 m) — paved — lighted

Latest comments (top)

Gander hospitality: Our USAirways flight from Dublin to ... [read]

More... (top)

See also NOTAMs and nearby airports and navaids, or visit the Gander International Airport page at the main OurAirports website..